星链-35647(STARLINK-35647)

导读

STARLINK-35647是美国于2025年11月8日发射的星链卫星,隶属于SpaceX公司的星链星座项目。星链项目旨在构建全球卫星互联网星座,为全球各地提供高速互联网接入服务,尤其服务偏远地区与网络基础设施薄弱区域,进一步扩充星链在轨卫星规模,提升全球覆盖能力与服务性能。

Basic Information
目录编号:
66388
目录名称:
STARLINK-35647
国际标识:
2025-257J
轨道中心:
EARTH
卫星名称:
星链-35647
卫星全名:
星链-35647(STARLINK-35647)
卫星状态:
在轨 (已飞行300 天)
发射日期:
2025-11-08 UTC
国别 :
美国 (US)
星等 :
--
Orbit Information
数据来源 国际轨道数据 AOE轨道数据
星历时间 2026-09-03T15:53:36+0800
22小时前
查看轨道信息
2026-09-01T22:00:00+0800
2天前
查看轨道信息
半长轴 6840.852km 6840.806km
偏心率 0.0001259 0.0001413
轨道倾角 53.158° 53.158°
近地点辐角 87.258° 59.620°
升交点赤经 110.292° 118.456°
平近点角 272.857° 12.953°
近地点 461.853km 461.702km
远地点 463.577km 463.636km
周期 93.848分钟 93.847分钟
每日圈数 15.343961 15.344117
Detailed Information
固有亮度:
5
最大亮度:
2.5
卫星平台:
Starlink V1.0
覆盖范围:
全球
运营商:
太空探索技术公司
运营商所在国:
美国
制造商(研发单位):
太空探索技术公司
制造商所在国:
美国
使用方式:
暂无
Satellite Introduction
Starlink 计划是 SpaceX 推出的全球卫星互联网项目,通过发射低轨道卫星,为全球尤其是偏远地区提供高速、低延迟的互联网服务。自 2019 年起,Starlink 已部署数千颗卫星,旨在缩小全球数字鸿沟,推动互联网普及。该项目还为军事、航空等行业提供通信支持,带来广泛经济效益。
2D Orbit Map
3D Orbit Map
Orbit Altitude Analysis Chart
Orbit Inclination Analysis Chart
Orbit Comprehensive Analysis Chart
View Comprehensive Chart